STARLINK-32615, 62034

Orbit data source: Space-Track

STARLINK-32615, 62034 is a payload satellite owned by SpaceX/Seattle (US) in LEO that was launched on Thu, 21 Nov 2024 UTC via an FALCON 9 launch vehicle from the Air Force Eastern Test Range (AFETR). Payload-class satellites include a variety of spacecraft equipped with specific instruments for various scientific and technological missions. These include communications satellites like Starlink; space stations such as the ISS; scientific satellites like the Hubble; Earth observation satellites from companies like Planet Labs, Umbra, and HawkEye 360; GPS; miniature CubeSats for education and research; and military/defense satellites.

Loading next visibility...
Identifier
62034, 2024-216C
Orbit
LEO
Country
Flag of USUS
Related business
Manufacturer
SpaceX/Seattle
Mission
Operational Commercial Communications
Bus & Motor
STARLINK V2M, Unknown motor
Mass
730 kg wet, ~700 kg dry
Launch date (UTC)
2024-11-21 (10 months ago)
Launch vehicle
FALCON 9
Launch site
Air Force Eastern Test Range (AFETR)
Object type
Payload
Rocket body
Debris
Shape & HBR
Box + 2 Pan, 14.5 m
Radar Cross Section
36.964 m², Large (>1 m²)

Expand to show TLE details & history
Last TLE update: 17 hours ago

TLE from 17 hours ago
0 STARLINK-32615
1 62034U 24216C   25260.08440527  .00027834  00000-0  10185-2 0  9996
2 62034  43.0009 156.8671 0001355 301.3521  58.7198 15.27537293 46165
Epoch: 2025-09-17T02:01Z
TLE epoch observation values (Epoch: 2025-09-17T02:01:32.615Z)
Latitude
-0.00001°
Longitude
130.21577°
Altitude
482.47 km
Speed
7.626 km/s
True Right ascension
10h 27m 28s
True Declination
0° 00' 00"
Sunlit
Object was in daylight at epoch
Visualization orbit readout
Latitude
Unknown
Longitude
Unknown
Altitude
Unknown
Speed
Unknown
Apparent Right ascension
Unknown
Apparent Declination
Unknown
Sunlit
N/A
Visualization observer readout
Local Sidereal Time
11:27:38
Azimuth
Unknown
Elevation
Unknown
Doppler factor
Unknown
Orbital elements
Apogee altitude
486.052 km
Perigee altitude
484.192 km
Semi-major axis
6,863.259 km
Eccentricity
0.00014
Inclination
43.0009°
RAAN
156.8671°
Arg. of periapsis
301.3521°
True anomaly
58.73307°
Mean anomaly
58.7198°
Eccentric anomaly
58.72644°
Mean motion
3.81722 °/min
Orbital period
94.31 mins
BSTAR
0.0010185
Loading maneuver chart data...
Computing Atmospheric mass density...
Loading historical data...
Loading historical data...
Loading historical data...
Loading historical data...
Loading historical data...
Loading historical data...
Loading historical data...

Documentation

Showing up to 5 results
|